Powrót do katalogu

STARLINK-37441

AktywnyŁącznośćSSO
NORAD 68858·PAYLOAD·🇺🇸 United States

Wystrzelony Apr 26, 2026 z Vandenberg Space Force Base

Loading…

Następne Przeloty (najbliższe 24 godziny)

TLE

ŚwieżeSource: CelesTrak SupGP

Epoka: Sep 14, 2026, 14:34 UTC

1 68858C 26094V   26257.60743056 -.00037833  00000+0 -11742-2 0  2578
2 68858  97.2838 270.8624 0001611  97.2111  48.7227 15.33465091    11

Śledź STARLINK-37441 w czasie rzeczywistym z AllMySat

Download on the App Store